Home   Weather   Lucknow   Past weeks

Flag for India Past Weather in Lucknow, Uttar Pradesh, India — Yesterday and Last 2 Weeks

63 °F


Feels Like: 63 °F
Forecast: 59 / 87 °F
Wind: No wind

Location: Lucknow / Amausi

Current Time: Oct 28, 2016 at 6:13:55 AM

Latest Report: Oct 28, 2016 at 5:30 AM

Visibility: 1 mi

Pressure: 29.86 "Hg

Humidity: 83%

Dew Point: 57 °F

Location of LucknowLocation

Past Weather in Lucknow — Graph


Lucknow Temperature Yesterday

Maximum temperature yesterday: 95 °F (at 2:00 PM)
Minimum temperature yesterday: 64 °F (at 5:00 AM)
Average temperature yesterday: 80 °F

High & Low Weather Summary for the Past Weeks

High100 °F (Oct 26, 6:00 PM)100% (Oct 15, 6:30 AM)29.98 "Hg (Oct 15, 6:30 AM)
Low64 °F (Oct 27, 5:00 AM)24% (Oct 26, 1:30 PM)29.68 "Hg (Oct 20, 4:00 AM)
Average80 °F59%29.78 "Hg
* Reported Oct 13 5:00 AM — Oct 28 5:00 AM, Lucknow, Weather by CustomWeather, © 2016

Note: Actual official high and low records may vary slightly from our data, if they occured in-between our weather recording intervals... More about our weather records


Lucknow Weather History for the Previous 24 Hours

Scroll right to see more
Time TempWeatherWind HumidityBarometerVisibility
5:00 AM
Fri, Oct 28
64 °FHaze.No wind83%29.86 "Hg1 mi
4:00 AM68 °FHaze.No wind69%29.83 "Hg1 mi
3:00 AM68 °FHaze.No wind69%29.86 "Hg1 mi
2:00 AM68 °FHaze.No wind69%29.86 "Hg1 mi
1:00 AM68 °FHaze.No wind69%29.89 "Hg2 mi
12:00 AM66 °FHaze.No wind78%29.89 "Hg2 mi
11:00 PM
Thu, Oct 27
70 °FHaze.No wind73%29.92 "Hg2 mi
10:00 PM72 °FHaze.No wind69%29.92 "Hg2 mi
9:00 PM72 °FHaze.No wind69%29.92 "Hg2 mi
8:30 PM73 °FHaze.No wind61%29.92 "Hg2 mi
8:00 PM77 °FHaze.No wind54%29.92 "Hg2 mi
7:30 PM79 °FHaze.No wind54%29.92 "Hg2 mi
7:00 PM79 °FHaze.No wind54%29.92 "Hg2 mi
6:30 PM82 °FHaze.No wind42%29.89 "Hg2 mi
6:00 PM84 °FHaze.No wind45%29.89 "Hg2 mi
5:30 PM86 °FHaze.No wind46%29.89 "Hg2 mi
5:00 PM88 °FHaze.No wind43%29.89 "Hg2 mi
4:30 PM91 °FHaze.No wind34%29.89 "Hg2 mi
4:00 PM93 °FHaze.No wind28%29.86 "Hg2 mi
3:30 PM95 °FHaze.No wind26%29.86 "Hg2 mi
3:00 PM95 °FHaze.No wind26%29.89 "Hg2 mi
2:30 PM95 °FHaze.No wind26%29.89 "Hg2 mi
2:00 PM95 °FHaze.No wind26%29.89 "Hg2 mi
1:30 PM93 °FHaze.No wind30%29.92 "Hg2 mi
1:00 PM93 °FHaze.No wind34%29.92 "Hg2 mi
12:30 PM91 °FHaze.No wind34%29.92 "Hg2 mi
12:00 PM90 °FHaze.No wind41%29.95 "Hg2 mi
11:30 AM90 °FHaze.No wind41%29.95 "Hg2 mi
11:00 AM88 °FHaze.No wind46%29.98 "Hg2 mi
10:30 AM86 °FHaze.No wind49%29.98 "Hg1 mi
10:00 AM84 °FHaze.No wind55%29.98 "Hg1 mi
9:30 AM81 °FFog.No wind66%29.98 "Hg1 mi
9:00 AM79 °FFog.No wind65%29.98 "Hg1 mi
8:30 AM73 °FHaze.No wind83%29.98 "Hg1 mi
7:30 AM70 °FHaze.No wind88%29.95 "Hg1 mi
7:00 AM64 °FFog.No wind88%29.92 "Hg1 mi
6:30 AM64 °FFog.No wind88%29.89 "Hg1 mi
6:00 AM64 °FFog.No wind88%29.89 "Hg1 mi
Weather by CustomWeather, © 2016

See weather overviewHow to use our weather pages